This is the latest recevied weather packets stored in our database for station/object 1NW106. If no packets are shown the sender has not sent any weather packets the latest 10 day(s).
| Time | Temp. | Humidity | Pressure | Rain* | Wind** | Luminosity | Snow |
|---|---|---|---|---|---|---|---|
| 1788279707 | 24.44° C | 99% | 1011.1 hPa | 0 mm | - | - | - |
| 1788279107 | 25° C | 98% | 1011.4 hPa | 0 mm | - | - | - |
| 1788278507 | 25° C | 97% | 1011.5 hPa | 0 mm | - | - | - |
| 1788277907 | 24.44° C | 98% | 1011.4 hPa | 0 mm | - | - | - |
| 1788277307 | 24.44° C | 99% | 1011.4 hPa | 0 mm | - | - | - |
| 1788276707 | 24.44° C | 99% | 1011.5 hPa | 0 mm | - | - | - |
| 1788276107 | 24.44° C | 98% | 1011.6 hPa | 0 mm | - | - | - |
| 1788275507 | 24.44° C | 97% | 1011.7 hPa | 0 mm | - | - | - |
| 1788274907 | 25° C | 95% | 1011.8 hPa | 0 mm | - | - | - |
| 1788274307 | 25° C | 93% | 1011.8 hPa | 0 mm | - | - | - |
| 1788273706 | 25° C | 93% | 1011.6 hPa | 0 mm | - | - | - |
| 1788273107 | 25.56° C | 94% | 1011.1 hPa | 0 mm | - | - | - |
| 1788272507 | 26.11° C | 96% | 1010.4 hPa | 0 mm | - | - | - |
| 1788271907 | 26.11° C | 99% | 1009.4 hPa | 0 mm | - | - | - |
| 1788270707 | 26.11° C | 98% | 1009.3 hPa | 0 mm | - | - | - |
| 1788270107 | 26.67° C | 95% | 1009.6 hPa | 0 mm | - | - | - |
| 1788269507 | 26.67° C | 94% | 1009.7 hPa | 0 mm | - | - | - |
| 1788268907 | 26.11° C | 95% | 1009.4 hPa | 0 mm | - | - | - |
| 1788268307 | 26.67° C | 94% | 1009.5 hPa | 0 mm | - | - | - |
| 1788267707 | 26.67° C | 93% | 1009.5 hPa | 0 mm | - | - | - |
| 1788267106 | 26.67° C | 94% | 1009.4 hPa | 0 mm | - | - | - |
| 1788266507 | 26.67° C | 94% | 1009.1 hPa | 0 mm | - | - | - |
| 1788265907 | 26.67° C | 93% | 1009.2 hPa | 0 mm | - | - | - |
| 1788265306 | 26.67° C | 94% | 1009 hPa | 0 mm | - | - | - |
| 1788264706 | 26.67° C | 94% | 1008.8 hPa | 0 mm | - | - | - |
* Rain latest hour (hover to see other rain measurements)
** Current wind speed in m/s (hover to see current wind gust speed)